Regional Weather Roundup
Issued by NWS

Home | Current Version | Previous Version | Text Only | Print | Product List | Glossary Off
Versions: 1 2 3 4 5 6 7 8 9 10 11 12 13 14 15 16 17 18 19 20 21 22 23 24 25 26 27 28 29 30 31 32 33 34 35 36 37 38 39 40 41 42 43 44 45 46 47 48 49 50

000
ASUS43 KMKX 050411
RWRWI

WISCONSIN REGIONAL WEATHER ROUNDUP
NATIONAL WEATHER SERVICE MILWAUKEE/SULLIVAN WI
1100 PM CDT FRI SEP 04 2015

NOTE: "FAIR" INDICATES FEW OR NO CLOUDS BELOW 12,000 FEET WITH NO
SIGNIFICANT WEATHER AND/OR OBSTRUCTIONS TO VISIBILITY.

WIZ001-002-006>008-014>016-023>028-050500-
NORTHWEST WISCONSIN

CITY           SKY/WX    TMP DP  RH WIND       PRES   REMARKS
SUPERIOR ARPT  PTCLDY    60  58  92 CALM      29.97S
ASHLAND        CLEAR     62  62 100 CALM      30.00R
HAYWARD        CLEAR     73  66  78 SE6       30.01R
SIREN          CLEAR     75  70  84 SE7       29.96F
CUMBERLAND     CLEAR     70  68  94 SE6       29.99F
RICE LAKE      CLEAR     73  67  82 SE10      30.01S
CHETEK         PTCLDY    72  68  88 SE5       30.00S
LADYSMITH      CLEAR     71  66  85 SE3       30.04S
EAU CLAIRE     CLEAR     74  68  81 SE5       29.99R
MENOMONIE      MOCLDY    74  72  91 E5        29.99R
NEW RICHMOND   PTCLDY    75  70  84 SE6       29.97S
OSCEOLA        PTCLDY    77  72  83 SE6       29.98R
$$

WIZ003>005-009-010-017-018-050500-
NORTH CENTRAL WISCONSIN

CITY           SKY/WX    TMP DP  RH WIND       PRES   REMARKS
MANITOWISH WTR CLEAR     68  67  96 SE7       30.06S
ARBOR VITAE    CLEAR     72  69  90 SE8       30.07S
WOODRUFF       CLEAR     72  69  90 SE8       30.07S
RHINELANDER    CLEAR     67  64  90 SE8       30.08F
EAGLE RIVER    CLEAR     66  65  97 CALM      30.08S
LAND O LAKES   CLEAR     67  65  93 S3        30.09S
PHILLIPS       CLEAR     70  67  89 SE3       30.04S
TOMAHAWK       CLEAR     66  64  91 CALM      30.07S
MEDFORD        CLEAR     68  66  96 SE7       30.05S
MERRILL        CLEAR     68  67  96 SE5       30.07S
$$

WIZ029-030-035-036-043>047-050500-
CENTRAL WISCONSIN

CITY           SKY/WX    TMP DP  RH WIND       PRES   REMARKS
WAUSAU         PTCLDY    69  66  90 E7        30.05S
MOSINEE        CLEAR     66  66 100 SE5       30.07S
MARSHFIELD     CLEAR     70  64  81 SE7       30.05S
STEVENS POINT  CLEAR     65  64  99 E3        30.07R FOG
WAUPACA        PTCLDY    68  67  98 CALM      30.06S FOG
WAUTOMA        CLEAR     65  65 100 CALM      30.06S
WISC RAPIDS    PTCLDY    69  64  84 SE6       30.06S
CAMP DOUGLAS   CLEAR     70  70 100 SE6       30.03S
$$

WIZ011>013-019>022-031-037>040-048>050-050500-
NORTHEAST WISCONSIN

CITY           SKY/WX    TMP DP  RH WIND       PRES   REMARKS
ANTIGO         CLEAR     63  63 100 SE3       30.09S FOG
SHAWANO        NOT AVBL
OCONTO         PTCLDY    62  62 100 CALM      30.05F
STURGEON BAY   CLOUDY    68  64  88 CALM      30.09S
GREEN BAY      PTCLDY    64  63  96 CALM      30.06F FOG
MANITOWOC      FOG       65  65 100 MISG      30.07S VSB 1/4
APPLETON       MOCLDY    66  66 100 VRB5      30.05S
CLINTONVILLE   CLEAR     64  64 100 CALM      30.06S FOG
OSHKOSH        MOCLDY    66  64  93 SE3       30.06R
$$

WIZ032>034-041-042-053>061-050500-
SOUTHWEST WISCONSIN

CITY           SKY/WX    TMP DP  RH WIND       PRES   REMARKS
LA CROSSE      PTCLDY    77  73  87 SE8       29.99R
SPARTA         CLEAR     73  66  80 E3        30.02S
VIROQUA        PTCLDY    74  74 100 SE8       30.04R
BOSCOBEL       CLEAR     74  72  93 CALM      30.01R FOG
PRAIRIE DU CHI CLEAR     74  70  89 CALM      30.00R
PLATTEVILLE    CLEAR     76  73  91 SE6       30.02S
$$

WIZ056-057-062-063-064-067-068-050500-
SOUTH CENTRAL WISCONSIN

CITY           SKY/WX    TMP DP  RH WIND       PRES   REMARKS
REEDSBURG      PTCLDY    71  69  93 E3        30.04S
BARABOO/DELLS  CLEAR     70  66  88 E6        30.05S
LONE ROCK      CLEAR     73  70  90 E6        30.02S
MINERAL POINT  CLEAR     75  72  88 E3        30.04S
MADISON        PTCLDY    71  67  87 SE6       30.04S
MIDDLETON      CLEAR     73  69  87 SE12      30.05S
WATERTOWN      PTCLDY    67  67 100 CALM      30.06S
MONROE         FAIR      72  70  94 E8        30.05S
JANESVILLE     PTCLDY    70  66  88 E5        30.05S
$$

WIZ051-052-058>065-066-070>072-050500-
SOUTHEAST WISCONSIN

CITY           SKY/WX    TMP DP  RH WIND       PRES   REMARKS
MILWAUKEE      FOG       66  65  96 S5        30.06S VSB 1/2
WAUKESHA       CLEAR     64  63  94 E3        30.08S
MILWAUKEE/TIMM CLOUDY    64  63  94 SE5       30.07S
RACINE         CLOUDY    68  65  90 S3        30.08S
BURLINGTON     CLOUDY    65  64  96 SE3       30.06F FOG
KENOSHA        CLOUDY    69  66  90 S6        30.07S
FOND DU LAC    MOCLDY    66  65  96 SE3       30.07R
SHEBOYGAN      FOG       63  63 100 CALM      30.07S VSB 1/4
WEST BEND      FOG       63  63 100 CALM      30.07F VSB 1/4
JUNEAU         PTCLDY    67  65  94 E7        30.07S
$$

LSZ147-162-050500-
LAKE SUPERIOR

STATION/POSITION TIME  TEMP    WIND        PRES    WAVE
                       AIR SEA DIR/SP/G            HT/PER
                 (UTC) (F)     (DEG/KT/KT) (MB)    (FT/S)
W MID LAKE BUOY  0350   63 57  110/ 10/ 12 1015.6F   2/ 4
DEVILS ISLAND    0400   72     160/  6/  7 1015.0R
PORT WING        0300   54     270/  4/  5 1015.6
SAXON HARBOR     0340   70      CALM  /  7 1014.9R
$$

LMZ867-665-643>646-050500-
LAKE MICHIGAN

STATION/POSITION TIME  TEMP    WIND        PRES    WAVE
                       AIR SEA DIR/SP/G            HT/PER
                 (UTC) (F)     (DEG/KT/KT) (MB)    (FT/S)
CHAMBERS ISLAND  0300   67     300/  2/  4 1018.3R
S GREEN BAY BUOY 0300   67 67   40/  4/  4 1019.4R
N MID LAKE BUOY  0350   68 67  100/  6/  8 1017.5F   2/ 5
NORTHPORT PIER   0300   68        CALM     1017.9S
SISTER BAY       0311   68      CALM  /  3   N/A
ALGOMA LAKESHORE 0314             CALM       N/A
KEWAUNEE LAKESHO 0300   66     280/  2/  2 1017.1R
SHEBOYGAN LAKESH 0400   62     190/  2/  2 1018.4R
PORT WASHINGTON  0300   61      CALM  /  2 1018.6S
ATWATER BUOY     0400   61 59   40/  4/  4 1019.5R
MILWAUKEE LAKESH 0310   64     180/  2/  2   N/A
S MID LAKE BUOY  0350   69 71  160/  2/  4 1017.6F
KENOSHA   LAKESH 0400   66      20/  2/  3 1017.9R
$$

TC  - TEMPERATURE IN CELSIUS
VSB - VISIBILITY IN STATUTE MILES
WCI - WIND CHILL INDEX
HX  - HEAT INDEX




USA.gov is the U.S. government's official web portal to all federal, state and local government web resources and services.